Regional Weather Roundup
Issued by NWS

Home | Current Version | Previous Version | Graphics & Text | Print | Product List | Glossary Off
Versions: 1 2 3 4 5 6 7 8 9 10 11 12 13 14 15 16 17 18 19 20 21 22 23 24 25 26 27 28 29 30 31 32 33 34 35 36 37 38 39 40 41 42 43 44 45 46 47 48 49 50

000
ASUS43 KMPX 251610
RWRMN
WEATHER ROUNDUP FOR MINNESOTA
NATIONAL WEATHER SERVICE TWIN CITIES/CHANHASSEN MN
1100 AM CDT SAT APR 25 2015


NOTE: "FAIR" INDICATES FEW OR NO CLOUDS BELOW 12,000 FEET WITH NO
SIGNIFICANT WEATHER AND/OR OBSTRUCTIONS TO VISIBILITY. N/A MEANS
CURRENT SKY AND/OR WEATHER CONDITIONS ARE NOT AVAILABLE.

MNZ060>063-068>070-251700-
   Twin Cities Metro

CITY           SKY/WX    TMP DP  RH WIND       PRES   REMARKS
TWIN CITIES    MOSUNNY   50  36  58 E13       29.86S
ST PAUL        MOSUNNY   50  35  56 NE13      29.88S
CRYSTAL        PTSUNNY   51  36  56 E13G21    29.86S
BLAINE         CLOUDY    52  36  54 E14       29.88R
LAKEVILLE      MOSUNNY   48  39  71 NE13G18   29.84S
EDEN PRAIRIE   PTSUNNY   50  38  63 E13G21    29.84S
SOUTH ST PAUL  MOSUNNY   51  35  55 E12       29.86F
LAKE ELMO      CLOUDY    50  34  53 E13       29.88S
$$
MNZ001>005-007-008-013>017-022>024-027-028-251700-
   Northwest Minnesota

CITY           SKY/WX    TMP DP  RH WIND       PRES   REMARKS
BEMIDJI        SUNNY     48  31  51 E12       29.92R
HALLOCK        SUNNY     54  32  43 E9        29.91F
ROSEAU         MOSUNNY   52  28  40 NE13      29.95S
WARROAD        SUNNY     45  30  57 NE13      29.98R
THIEF RVR FALL MOSUNNY   50  32  50 E9G16     29.92S
CROOKSTON      MOSUNNY   54  36  50 SE9G16    29.91R
FOSSTON        CLOUDY    52  34  50 E9        29.90R
DETROIT LAKES  PTSUNNY   50  36  57 SE13      29.89R
MOORHEAD       PTSUNNY   46  36  66 E9        29.90R
PARK RAPIDS    PTSUNNY   48  33  56 E10       29.90R
MAHNOMEN       CLOUDY    50  35  57 SE16      29.89R
$$
MNZ006-009>011-018-025>026-251700-
   North Central Minnesota

CITY           SKY/WX    TMP DP  RH WIND       PRES   REMARKS
BAUDETTE       SUNNY     50  24  36 E8        29.96S
FLAG ISLAND    SUNNY     46  25  42 SE3       29.98S
INTL FALLS     SUNNY     47  22  37 E12       29.98S
WASKISH        MOSUNNY   52  28  40 E5        29.95R
BIG FORK       MOSUNNY   46  25  42 E8        29.96R
LONGVILLE      CLOUDY    43  30  61 E8        29.93R
GRAND RAPIDS   CLOUDY    45  27  49 SE7       29.95R
CRANE LAKE     CLOUDY    45  12  26 NE5       30.01S
ORR            CLOUDY    48  18  29 E3        29.94F
COOK           PTSUNNY   45  21  39 E5        29.97S
WALKER         CLOUDY    43  30  61 E8        29.93R
$$
MNZ012-019>021-037-251700-
   Northeast Minnesota

CITY           SKY/WX    TMP DP  RH WIND       PRES   REMARKS
DULUTH         CLOUDY    37  25  61 E12G22    29.97R
ELY            SUNNY     46  12  25 NE6       29.97S
HIBBING        CLOUDY    42  21  43 E6        29.96R
EVELETH        SUNNY     41  19  42 E5        29.98S
DULUTH HARBOR  CLOUDY    37  32  81 NE23      30.01R
TWO HARBORS    CLOUDY    43  28  56 E13       29.97S
SILVER BAY     MOSUNNY   43  23  45 NE14G20   29.98F
GRAND MARAIS     N/A     38  24  57 E14G22    30.04S
G MARAIS ARPRT MOSUNNY   43   3  19 NE9       29.99F
$$
MNZ029>031-032-039>041-046>048-054>057-064-251700-
   West Central Minnesota

CITY           SKY/WX    TMP DP  RH WIND       PRES   REMARKS
FERGUS FALLS   CLOUDY    45  34  65 E10G16    29.89R
WHEATON        CLOUDY    41  39  93 E13       29.88R FOG
MORRIS         MOSUNNY   45  39  81 E16       29.84R
ALEXANDRIA     CLOUDY    42  37  82 E13       29.87R
ELBOW LAKE     CLOUDY    42  37  82 E13G18    29.86R
WADENA         PTSUNNY   46  36  66 E13       29.88R
GLENWOOD       DRIZZLE   43  39  87 E14       29.86R
APPLETON       MOSUNNY   46  41  81 E12       29.84R
BENSON         CLOUDY    45  39  81 SE10      29.85R
ORTONVILLE     CLOUDY    45  39  81 E10       29.83S
MADISON        CLOUDY    46  41  81 E13       29.83R
WILLMAR        FAIR      46  41  81 E13       29.85S
$$
MNZ033>034-036-042>043-049>051-058-059-251700-
   Central Minnesota

CITY           SKY/WX    TMP DP  RH WIND       PRES   REMARKS
ST CLOUD       CLOUDY    48  38  68 E6        29.88R
SAUK CENTRE    CLOUDY    44  38  80 E16       29.87R
PAYNESVILLE    CLOUDY    42  37  83 NE10G17   29.87R
AITKIN         PTSUNNY   46  32  57 E8G16     29.92R
PINE RIVER     CLOUDY    45  34  65 SE10      29.95R
BRAINERD       CLOUDY    44  33  65 VRB7      29.91R
STAPLES        PTSUNNY   46  34  61 E6        29.89R
LONG PRAIRIE   CLOUDY    43  36  75 E12       29.88S
LITTLE FALLS   MOSUNNY   46  34  61 E10G16    29.89R
LITCHFIELD     CLOUDY    46  41  81 E12G20    29.85S
BUFFALO        CLOUDY    48  37  65 E10       29.87S
MAPLE LAKE     CLOUDY    48  40  72 E10       29.88R
$$
MNZ037-044-045-052-053-251700-
   East Central Minnesota

CITY           SKY/WX    TMP DP  RH WIND       PRES   REMARKS
PRINCETON      CLOUDY    52  37  58 E12       29.89R
MORA           MOSUNNY   48  32  53 SE7       29.92R
CAMBRIDGE      PTSUNNY   52  36  54 E7        29.88R
RUSH CITY      CLOUDY    51  33  50 E9G17     29.91R
MOOSE LAKE     CLOUDY    37  30  75 NE9       29.93S
HINCKLEY       PTSUNNY   50  34  53 E12       29.91S
CLOQUET        CLOUDY    37  25  60 E15G21    29.96S
MCGREGOR       CLOUDY    41  32  70 E15       29.95R
$$
MNZ071>073-080-081-089-090-097-098-251700-
   Southwest Minnesota

CITY           SKY/WX    TMP DP  RH WIND       PRES   REMARKS
MONTEVIDEO     CLOUDY    45  41  87 SE13      29.84R
GRANITE FALLS  CLOUDY    47  39  71 E14       29.83S
CANBY          CLOUDY    46  41  81 E12G17    29.82S
MARSHALL       CLOUDY    46  36  66 E13       29.80R
REDWOOD FALLS  CLOUDY    48  38  68 E13G22    29.81R
OLIVIA         CLOUDY    46  37  71 E15G21    29.82R
PIPESTONE      PTSUNNY   45  39  81 E14       29.75S
WINDOM         CLOUDY    46  37  71 E15       29.78R
WORTHINGTON    CLOUDY    46  37  71 NE16G23   29.76R
JACKSON        CLOUDY    46  37  71 E16       29.77R
TRACY          CLOUDY    48  40  72 E16       29.79S
SLAYTON        PTSUNNY   48  40  74 E14       29.78R
$$
MNZ065>067-074>077-082>085-091>093-251700-
   South Central Minnesota

CITY           SKY/WX    TMP DP  RH WIND       PRES   REMARKS
MANKATO        CLOUDY    48  37  66 E12       29.81S
NEW ULM        CLOUDY    46  37  71 E12       29.81S
ST JAMES       CLOUDY    48  39  71 E14       29.81R
FAIRMONT       CLOUDY    46  32  57 E16       29.77S
GLENCOE        CLOUDY    47  40  77 E12G17    29.84R
FARIBAULT      PTSUNNY   48  41  76 NE10      29.83R
OWATONNA       PTSUNNY   48  39  71 E18       29.81S
WASECA         PTSUNNY   50  41  71 E17G23    29.81S
ALBERT LEA     PTSUNNY   48  41  76 E17       29.77S
$$
MNZ078>079-086>088-094>096-251700-
   Southeast Minnesota

CITY           SKY/WX    TMP DP  RH WIND       PRES   REMARKS
ROCHESTER      CLOUDY    46  38  73 E17       29.82R
RED WING       MOSUNNY   52  36  54 E10       29.85R
STANTON        MOSUNNY   51  41  68 E13       29.83R
DODGE CENTER   PTSUNNY   48  41  76 E20       29.81R
AUSTIN         PTSUNNY   48  39  71 E16G24    29.78R
PRESTON        CLOUDY    46  37  70 E14G21    29.80S
$$
ABBREVIATIONS USED IN REMARKS
   TC - TEMPERATURES IN CELSIUS
  WCI - WIND CHILL INDEX
   HX - HEAT INDEX
  VSB - VISIBILITY
$$


USA.gov is the U.S. government's official web portal to all federal, state and local government web resources and services.